This is the latest recevied weather packets stored in our database for station/object IV3CGM-13. If no packets are shown the sender has not sent any weather packets the latest 10 day(s).
| Time | Temp. | Humidity | Pressure | Rain* | Wind** | Luminosity | Snow |
|---|---|---|---|---|---|---|---|
| 1788492883 | 22.78° C | 61% | 1018.9 hPa | 0 mm | - | 0 W/m² | - |
| 1788492196 | 22.78° C | 61% | 1019 hPa | 0 mm | - | 0 W/m² | - |
| 1788491508 | 22.78° C | 63% | 1019 hPa | 0 mm | - | 0 W/m² | - |
| 1788490821 | 23.33° C | 59% | 1019.1 hPa | 0 mm | - | 0 W/m² | - |
| 1788490085 | 23.33° C | 60% | 1019.1 hPa | 0 mm | - | 0 W/m² | - |
| 1788489384 | 23.33° C | 60% | 1019.2 hPa | 0 mm | - | 0 W/m² | - |
| 1788488696 | 23.89° C | 58% | 1019.2 hPa | 0 mm | - | 0 W/m² | - |
| 1788488008 | 23.33° C | 60% | 1019.3 hPa | 0 mm | - | 0 W/m² | - |
| 1788486633 | 23.33° C | 60% | 1019.2 hPa | 0 mm | - | 0 W/m² | - |
| 1788485946 | 23.33° C | 60% | 1019.2 hPa | 0 mm | - | 0 W/m² | - |
| 1788485209 | 23.33° C | 60% | 1019.2 hPa | 0 mm | - | 0 W/m² | - |
| 1788484508 | 23.33° C | 60% | 1019.1 hPa | 0 mm | - | 0 W/m² | - |
| 1788483821 | 23.89° C | 60% | 1019.1 hPa | 0 mm | - | 0 W/m² | - |
| 1788483133 | 23.89° C | 58% | 1019.1 hPa | 0 mm | - | 0 W/m² | - |
| 1788482445 | 23.89° C | 58% | 1019.2 hPa | 0 mm | - | 0 W/m² | - |
| 1788481709 | 23.89° C | 59% | 1019.2 hPa | 0 mm | - | 0 W/m² | - |
| 1788481008 | 23.89° C | 59% | 1019.3 hPa | 0 mm | - | 0 W/m² | - |
| 1788480321 | 23.89° C | 60% | 1019.2 hPa | 0 mm | - | 0 W/m² | - |
| 1788479633 | 23.89° C | 60% | 1019.4 hPa | 0 mm | - | 0 W/m² | - |
| 1788478946 | 23.89° C | 60% | 1019.3 hPa | 0 mm | - | 0 W/m² | - |
| 1788478258 | 23.89° C | 59% | 1019.2 hPa | 0 mm | - | 0 W/m² | - |
| 1788477570 | 23.89° C | 58% | 1019.1 hPa | 0 mm | - | 0 W/m² | - |
| 1788476884 | 23.89° C | 60% | 1019.2 hPa | 0 mm | - | 0 W/m² | - |
| 1788476183 | 23.89° C | 60% | 1019.2 hPa | 0 mm | - | 0 W/m² | - |
| 1788475495 | 23.89° C | 61% | 1019.2 hPa | 0 mm | - | 0 W/m² | - |
* Rain latest hour (hover to see other rain measurements)
** Current wind speed in m/s (hover to see current wind gust speed)